Location: Congis
(49.0072°N, 2.9765°E)
Time: 00:38:57
(UTC+00:00)

Daily predictions for brighter satellites

Satellite Brightness Start Highest point End
(mag) Time Altitude Azimuth Time Altitude Azimuth Time Altitude Azimuth
Cosmos 1802 Rocket 4.5 00:05:26 29° SSE 00:08:20 50° E 00:14:20 10° NNE
Cosmos 2082 Rocket 4.4 00:08:50 10° W 00:09:57 11° W 00:11:03 10° WSW
Cosmos 2221 2.4 00:07:20 10° NNW 00:11:37 82° W 00:12:32 54° S
Cosmos 2369 Rocket 2.4 00:15:02 29° SW 00:17:53 67° WNW 00:23:30 10° NNE
Cosmos 2173 Rocket 3.9 00:18:04 36° S 00:20:43 81° E 00:26:52 10° N
CENTAUR R/B 3.3 00:13:21 10° NW 00:21:34 89° SW 00:30:38 11° SE
SL-8 R/B 3.5 00:21:56 24° WSW 00:24:47 73° SSE 00:29:35 10° E
Cosmos 1862 4.5 00:25:47 27° W 00:26:43 30° WNW 00:30:11 10° N
Cosmos 44 Rocket 3.8 00:26:14 38° SSE 00:27:28 46° ESE 00:32:17 10° NE
NOSS 2-1 (C) 4.1 00:29:07 28° E 00:29:07 28° E 00:31:13 10° ENE
BREEZE-M DEB (TANK) 3.4 00:28:18 43° SSE 00:28:39 45° SE 00:36:21 10° ENE
Cosmos 2151 2.9 00:28:00 53° S 00:28:58 85° ESE 00:33:14 10° N
Cosmos 1624 Rocket 4.4 00:28:37 30° SW 00:31:02 57° WNW 00:36:14 10° NNE
Iridium 4 Rocket 4.1 00:27:58 10° N 00:33:36 54° W 00:36:02 33° SW
H-2A R/B 2.2 00:31:09 10° N 00:35:07 57° WNW 00:36:11 42° SW
Cosmos 2297 Rocket 3.9 00:32:08 10° NNW 00:37:09 31° NE 00:42:08 10° ESE
Cosmos 2263 4.5 00:36:05 28° SW 00:39:05 63° WNW 00:44:50 10° NNE
Cosmos 1076 Rocket 3.5 00:38:29 46° SSE 00:39:41 73° E 00:44:02 10° NNE
Cosmos 1850 Rocket 4.0 00:34:26 10° NNW 00:39:43 86° ENE 00:42:17 31° SSE
Cosmos 1340 Rocket 2.7 00:37:19 10° NNW 00:41:13 73° W 00:41:54 57° SSW
Cosmos 1825 Rocket 4.1 00:40:45 35° WSW 00:42:00 46° WNW 00:46:11 10° N
Okean 1 3.5 00:41:11 10° N 00:44:55 57° ENE 00:46:00 39° SE
Cosmos 1452 Rocket 3.6 00:43:06 37° S 00:45:04 64° ESE 00:50:17 10° NNE
Cosmos 2056 Rocket 4.3 00:42:45 24° WSW 00:45:34 44° WNW 00:50:34 10° NNE
USA 59 Rocket -0.4 00:50:38 49° ESE 00:50:38 49° ESE 00:53:21 10° NE
Lacrosse 4 Rocket 2.4 00:50:57 25° WSW 00:52:47 40° NW 00:56:43 10° NNE
Meteor 2-8 Rocket 4.4 00:53:23 33° SSW 00:56:18 75° WNW 01:02:24 10° N
Cosmos 1953 Rocket 4.0 00:56:15 37° SW 00:57:42 53° WNW 01:02:06 10° N
Lacrosse 5 rocket 2.0 00:58:00 21° W 01:00:20 50° NNW 01:04:15 10° NE
USA 281 4.1 00:58:23 25° SW 01:00:34 31° WSW 01:06:17 10° NW
Meteor 1-20 Rocket 4.3 00:58:40 31° S 01:01:27 69° E 01:07:00 10° NNE
NOSS 3-2 (A) 4.0 00:54:19 10° NW 01:01:41 80° SW 01:10:24 10° SSE
Cosmos 482 Debris 3.8 01:01:18 10° WNW 01:05:02 72° NNE 01:07:47 10° ESE
Cosmos 1331 Rocket 3.9 01:04:18 35° SSW 01:06:31 88° ESE 01:11:42 10° NNE
DELTA 2 R/B (1) 4.5 01:07:00 27° SSE 01:07:00 27° SSE 01:11:28 10° ESE
Cosmos 1626 3.7 01:05:48 10° NNE 01:08:26 24° ENE 01:10:10 15° ESE
CZ-2C R/B 3.4 01:05:57 13° SE 01:10:49 54° ENE 01:16:18 10° N
COBE Rocket 3.8 01:06:10 10° NNE 01:11:08 84° E 01:13:15 34° S
ATLAS 5 CENTAUR R/B 4.1 01:07:40 10° NNW 01:11:29 26° NNE 01:15:59 10° E
SJ 16-02 1.3 01:08:34 10° NNW 01:12:59 85° ENE 01:15:14 28° SSE
NOSS 2-1 (E) 2.5 01:13:34 64° SW 01:13:59 88° NW 01:17:01 10° NE
CZ-4C R/B 4.5 01:10:00 10° WNW 01:14:49 18° WSW 01:16:37 17° WSW
MOZ.5/SAFIR/RUBIN 5/SL-8 3.7 01:16:44 29° SSE 01:19:07 88° WSW 01:23:48 10° NNW
CZ-2D R/B 3.2 01:15:16 10° NNE 01:20:03 35° E 01:23:30 17° SSE
Cosmos 1741 Rocket 4.4 01:16:59 10° NNW 01:22:02 46° WSW 01:24:04 31° SSW
Cosmos 2016 Rocket 4.3 01:21:04 27° SW 01:24:34 59° WNW 01:30:50 10° N
Uosat 12 SS-18 rocket 3.9 01:21:16 10° NW 01:25:34 74° SW 01:28:48 18° SSE
Cosmos 2233 Rocket 4.0 01:22:17 27° SSW 01:25:53 81° W 01:32:11 10° N
NOSS 2-1 (D) 3.0 01:27:02 39° WSW 01:27:56 57° NW 01:30:55 10° NE
Gblst 52 Del rocket 4.3 01:22:47 10° W 01:28:16 72° N 01:33:55 10° ENE
NOSS 7 (H) 4.0 01:25:43 10° NW 01:28:40 75° SW 01:30:01 33° SSE
ASTEX 1 3.9 01:30:27 30° SW 01:32:29 46° W 01:37:15 10° NNW
Cosmos 1151 Rocket 3.1 01:29:50 10° N 01:34:11 76° ENE 01:36:53 23° SSE
Meteor 1-27 Rocket 3.9 01:28:38 10° NNW 01:34:24 60° W 01:37:38 26° SSW
NOSS 3-2 (C) 4.1 01:28:23 10° NW 01:35:45 89° SW 01:44:30 10° SE
Lacrosse 5 1.8 01:31:09 10° WNW 01:36:12 69° SW 01:41:14 10° SE
COSMOS 2455 4.0 01:32:46 10° WNW 01:37:23 23° WSW 01:38:45 21° SW
USA 234 3.4 01:31:08 10° ENE 01:37:36 58° SE 01:41:40 24° SSW
NPP 3.8 01:33:02 10° NNE 01:38:27 70° ESE 01:41:51 23° S
Cosmos 1867 3.9 01:35:39 10° NW 01:41:09 69° NE 01:46:35 10° SE
Meteor 1-25 Rocket 4.3 01:40:41 26° SSW 01:44:04 70° WNW 01:49:56 10° N
H-2A R/B 3.7 01:41:31 10° NNE 01:45:32 58° ESE 01:47:47 24° S
Helios 1A Rocket 3.5 01:44:43 31° SW 01:45:41 36° W 01:49:18 10° NNW
Cosmos 1900 4.2 01:41:48 10° NW 01:46:47 85° SW 01:51:40 10° SSE
ADEOS II 3.0 01:43:31 10° NNE 01:48:30 42° E 01:52:43 14° SSE
SL-16 R/B 3.4 01:42:36 10° SE 01:48:32 51° ENE 01:54:28 10° N
Resurs 1-4 Rocket 2.3 01:45:22 10° NNE 01:50:42 67° ESE 01:54:25 20° S
Cosmos 968 Rocket 4.2 01:46:32 10° NW 01:51:14 34° WSW 01:53:23 24° SW
Cosmos 1302 Rocket 4.0 01:48:24 26° SSW 01:51:27 84° WNW 01:56:44 10° NNE
ATLAS CENTAUR R/B 3.5 01:49:08 24° SSW 01:52:54 60° SE 02:02:17 10° NE
IDEFIX/ARIANE 42P 2.5 01:48:23 10° NNE 01:53:36 86° WNW 01:56:54 23° SSW
Cosmos 2263 Rocket 4.3 01:52:00 10° NNW 01:56:50 28° NE 02:01:39 10° ESE
Cosmos 2369 Rocket 4.4 01:59:23 10° WNW 02:03:01 17° NW 02:06:42 10° N
Cosmos 1464 Rocket 4.2 01:58:46 14° S 02:04:01 67° E 02:10:07 10° NNE
Cosmos 2227 Rocket 2.6 02:00:28 10° NNW 02:06:06 64° ENE 02:11:42 10° SE
SL-8 R/B 3.6 02:02:22 10° W 02:07:11 82° S 02:12:00 10° E
Cosmos 44 Rocket 4.5 02:04:51 13° WSW 02:09:04 37° NW 02:13:44 10° NNE
Cosmos 1743 2.6 02:07:23 22° S 02:09:37 76° E 02:13:17 10° NNE
Cosmos 1697 Rocket 3.5 02:06:26 14° S 02:10:53 45° ESE 02:16:12 10° NE
CENTAUR R/B 4.1 02:04:44 10° NW 02:11:47 30° WSW 02:17:38 15° SSW
Meteor 1-5 Rocket 4.1 02:09:48 20° SSW 02:13:38 72° WNW 02:18:59 10° N
Cosmos 1486 Rocket 4.3 02:10:49 10° NNW 02:16:09 71° ENE 02:21:28 10° SSE
Cosmos 1066 Rocket 4.1 02:11:52 10° NNW 02:17:16 87° ENE 02:22:44 10° S
Cosmos 2297 Rocket 2.3 02:15:58 10° NW 02:21:32 57° WSW 02:27:03 10° S
Meteor 2-17 Rocket 4.4 02:17:13 10° NNW 02:23:21 73° W 02:29:26 10° S
Cosmos 1992 Rocket 4.0 02:20:06 18° SSW 02:23:58 86° WNW 02:29:13 10° NNE
CZ-2C R/B 2.9 02:21:22 10° N 02:26:05 65° WNW 02:29:40 17° SSW
Meteor 2-4 Rocket 4.0 02:21:45 10° NNW 02:26:53 46° W 02:31:16 14° SSW
Cosmos 304 Rocket 3.9 02:23:11 10° NNW 02:28:01 80° ENE 02:32:48 10° SSE
Cosmos 1842 3.7 02:25:02 10° N 02:28:42 57° ENE 02:32:20 10° SSE
Cosmos 2344 3.6 02:23:34 15° SW 02:29:59 73° NW 02:37:30 10° NE
COSMOS 2441 4.5 02:26:35 10° N 02:31:28 69° WNW 02:35:26 15° SSW
Lacrosse 4 Rocket 4.2 02:31:33 10° NW 02:32:13 10° NNW 02:32:52 10° NNW
Cosmos 1707 3.2 02:33:58 10° N 02:37:35 57° ENE 02:41:09 10° SSE
Lacrosse 5 rocket 3.4 02:35:55 10° WNW 02:39:18 26° N 02:42:48 10° NE
USA 59 Rocket 1.6 02:38:10 10° WNW 02:40:13 16° NNW 02:42:15 10° NNE
Cosmos 1626 3.4 02:39:17 10° NW 02:41:35 19° W 02:42:44 16° WSW
USA 238 DEB 3.9 02:35:01 10° NW 02:42:20 70° SW 02:50:12 10° SSE
USA 238 3.9 02:35:07 10° NW 02:42:25 70° SW 02:50:15 10° SSE
Cosmos 1515 Rocket 3.8 02:38:51 10° N 02:43:19 76° ENE 02:47:43 10° SSE
Cosmos 1656 4.2 02:39:14 14° SW 02:43:46 48° NW 02:49:09 10° NNE
Cosmos 1980 Rocket 3.3 02:39:23 10° S 02:44:39 40° ESE 02:49:56 10° NE
Cosmos 482 Debris 4.5 02:44:06 10° W 02:46:22 20° SW 02:48:13 10° S
USA 32 4.4 02:41:33 10° NNW 02:46:32 46° W 02:51:20 11° SSW
Cosmos 1766 Rocket 3.7 02:44:24 14° SSW 02:48:07 58° WNW 02:52:27 10° N
Cosmos 1777 Rocket 4.3 02:43:52 10° NNW 02:49:06 73° ENE 02:54:17 10° SSE
Cosmos 1674 2.5 02:47:01 10° NNW 02:50:20 54° W 02:53:38 10° S
Cosmos 1400 Rocket 2.9 02:46:41 10° N 02:50:35 76° ENE 02:54:31 10° SSE
SJ 16-02 3.4 02:49:11 10° WNW 02:50:36 11° W 02:51:56 10° WSW
CZ-2C R/B 3.8 02:47:25 13° SW 02:51:22 27° W 02:56:05 10° NW
DELTA 2 R/B (1) 4.4 02:47:43 11° WSW 02:52:23 30° S 02:57:11 10° SE
Cosmos 1726 2.0 02:51:38 15° SSW 02:53:50 44° WNW 02:56:45 10° N
ATLAS 5 CENTAUR R/B 2.0 02:50:53 10° NW 02:55:41 83° SW 03:01:41 10° SE
Meteor 1-28 Rocket 3.7 02:54:26 10° SSW 02:57:46 37° W 03:01:11 10° NNW
Cosmos 1354 Rocket 4.2 02:54:42 10° NNW 02:59:57 79° ENE 03:05:11 10° SSE
CZ-2D R/B 2.9 02:55:19 10° N 03:00:04 37° WNW 03:04:46 10° SW
ALOS 2.3 02:57:11 10° N 03:01:48 71° WNW 03:06:23 10° SSW
Tiangong -0.6 03:00:37 13° SW 03:02:20 20° S 03:04:41 10° SE
Cosmos 1328 Rocket 4.4 03:00:40 10° NNW 03:04:37 32° W 03:08:32 10° SSW
AQUA 4.2 03:02:10 10° N 03:06:46 52° WNW 03:11:20 10° SW
In-Cosmos 22 4.3 03:02:04 10° N 03:07:31 83° ENE 03:13:04 10° SSE
Cosmos 371 Rocket 3.8 03:05:01 10° NW 03:09:31 38° WSW 03:13:59 10° S
Cosmos 1536 2.8 03:06:17 10° SSW 03:10:15 80° WNW 03:14:15 10° N
SAR-Lupe-1 4.2 03:07:03 10° NNE 03:10:39 77° ESE 03:14:12 10° S
Cosmos 2219 3.2 03:11:54 10° NNW 03:17:35 72° WSW 03:23:15 10° SSE
Lacrosse 5 3.4 03:15:32 10° W 03:18:23 15° WSW 03:21:14 10° SSW
Cosmos 1500 Rocket 3.8 03:14:13 10° S 03:18:33 73° E 03:22:57 10° NNE
FENGYUN 3A 4.5 03:13:53 10° N 03:18:50 38° WNW 03:23:47 10° SW
Gblst 52 Del rocket 4.4 03:14:45 10° WNW 03:20:17 78° NNE 03:26:14 10° ESE
NOSS 2-2 (C) 4.0 03:16:08 10° NW 03:20:22 85° NE 03:26:21 10° SE
USA 234 3.7 03:14:12 10° NE 03:20:41 64° NNW 03:27:08 10° WSW
NOSS 3-4 (C) 3.4 03:16:17 10° SW 03:21:50 80° NW 03:28:00 10° NE
NOSS 3-4 (A) 3.3 03:16:46 10° SW 03:22:14 78° NW 03:28:22 10° NE
Cosmos 1733 2.9 03:19:11 10° S 03:22:41 85° W 03:26:14 10° N
NOSS 2-2 (E) 4.3 03:19:41 10° NW 03:23:48 68° NE 03:29:31 10° SE
Cosmos 1340 3.1 03:22:20 10° SW 03:25:27 36° WNW 03:28:35 10° N
Cosmos 2084 3.2 03:23:29 10° NW 03:27:18 87° NE 03:31:05 10° SE
ADEOS II 3.1 03:23:23 10° N 03:28:00 32° WNW 03:32:36 10° SW
Meteor 1-4 Rocket 2.3 03:25:37 10° N 03:28:31 68° ENE 03:31:20 10° SSE
Cosmos 2369 4.1 03:23:27 10° SSW 03:29:06 65° ESE 03:34:47 10° NNE
CZ-4 R/B 4.1 03:24:38 10° NNE 03:29:39 80° ESE 03:34:32 10° SSW
Resurs 1-4 Rocket 3.7 03:25:58 10° N 03:30:01 22° WNW 03:34:02 10° WSW
Meteor 1-23 Rocket 4.4 03:25:31 10° N 03:31:16 82° ENE 03:36:55 10° SSE
Meteor 2-10 4.0 03:26:57 10° SSW 03:32:02 86° W 03:37:07 10° N
DMSP B5D2-2 4.1 03:26:49 10° SSE 03:32:03 85° WSW 03:37:20 10° NNW
SL-16 R/B 3.3 03:26:51 10° SSW 03:32:20 33° W 03:37:51 10° NNW
